KD9IXX-13 Weather Reports


time (UTC)temp
F
wind
direction
speed
knots
gust
knots
rain 1hr
in
rain 24hr
in
rain mn
in
humidity
%
barometer
mb
20260503231501 66 257 3.5 6.1 0.00 0.00 0.06 50 1008.8
20260503231002 66 201 3.5 7.8 0.00 0.00 0.06 50 1008.5
20260503230502 66 199 3.5 9.6 0.00 0.00 0.06 51 1008.4
20260503230001 66 271 3.5 10.4 0.00 0.00 0.06 51 1008.7
20260503225502 65 232 6.1 10.4 0.00 0.00 0.06 53 1008.6
20260503225002 64 196 3.5 6.1 0.00 0.00 0.06 53 1008.6
20260503224502 65 230 6.1 10.4 0.00 0.00 0.06 51 1008.8
20260503224002 66 180 5.2 9.6 0.00 0.00 0.06 51 1008.9
20260503223502 66 173 3.5 6.1 0.00 0.00 0.06 50 1008.8
20260503223002 64 279 4.3 6.1 0.00 0.00 0.06 51 1009.3
20260503222502 64 225 4.3 6.1 0.00 0.00 0.06 52 1009.3
20260503222002 64 233 1.7 6.1 0.00 0.00 0.06 53 1009.2
20260503221502 64 191 4.3 11.3 0.00 0.00 0.06 52 1009.2
20260503221002 64 210 5.2 8.7 0.00 0.00 0.06 53 1009.2
20260503220502 64 228 3.5 7.8 0.00 0.00 0.06 53 1009.3
20260503220003 64 187 5.2 10.4 0.00 0.00 0.06 52 1009.3
20260503215501 65 194 4.3 11.3 0.00 0.00 0.06 51 1009.2
20260503215002 64 179 8.7 12.2 0.00 0.00 0.06 51 1009.4
20260503214502 63 267 4.3 8.7 0.00 0.00 0.06 53 1009.6
20260503214002 63 255 4.3 8.7 0.00 0.00 0.06 53 1009.4
20260503213502 63 150 5.2 11.3 0.00 0.00 0.06 52 1009.5
20260503213002 63 230 7.8 12.2 0.00 0.00 0.06 51 1009.8
20260503212502 63 186 6.1 10.4 0.00 0.00 0.06 51 1009.9
20260503212002 63 173 6.1 10.4 0.00 0.00 0.06 51 1009.8
20260503211501 63 218 3.5 5.2 0.00 0.00 0.06 51 1010.0
20260503211002 63 188 5.2 6.1 0.00 0.00 0.06 51 1010.3
20260503210502 63 170 5.2 11.3 0.00 0.00 0.06 51 1010.4
20260503210002 63 183 6.1 9.6 0.00 0.00 0.06 50 1010.3
20260503205502 64 154 5.2 9.6 0.00 0.00 0.06 50 1010.1
20260503205002 64 271 5.2 9.6 0.00 0.00 0.06 49 1010.3
20260503204502 63 194 8.7 11.3 0.00 0.00 0.06 50 1010.5
20260503204002 62 241 3.5 8.7 0.00 0.00 0.06 51 1010.6
20260503203502 62 203 6.1 12.2 0.00 0.00 0.06 51 1010.5
20260503203002 62 183 5.2 10.4 0.00 0.00 0.06 50 1010.6
20260503202502 63 234 5.2 13.0 0.00 0.00 0.06 49 1010.8
20260503202002 65 178 10.4 12.2 0.00 0.00 0.06 47 1010.9
20260503201502 66 190 5.2 13.0 0.00 0.00 0.06 48 1010.9
20260503201001 65 201 5.2 11.3 0.00 0.00 0.06 50 1010.7
20260503200502 63 160 9.6 13.0 0.00 0.00 0.06 48 1010.7
20260503200002 63 174 7.8 13.0 0.00 0.00 0.06 49 1011.1
20260503195502 62 239 8.7 11.3 0.00 0.00 0.06 50 1011.2
20260503195002 63 199 9.6 15.6 0.00 0.00 0.06 48 1011.1
20260503194501 64 191 6.1 8.7 0.00 0.00 0.06 51 1011.1
20260503194002 64 209 4.3 12.2 0.00 0.00 0.06 50 1011.2
20260503193502 63 209 6.1 16.5 0.00 0.00 0.06 50 1011.3
20260503193002 64 227 7.0 11.3 0.00 0.00 0.06 50 1011.7
20260503192501 63 180 4.3 12.2 0.00 0.00 0.06 51 1011.5
20260503192002 62 191 6.1 8.7 0.00 0.00 0.06 53 1011.7
20260503191502 62 173 6.1 12.2 0.00 0.00 0.06 53 1011.5
20260503191002 62 202 4.3 11.3 0.00 0.00 0.06 54 1011.6
20260503190502 62 258 5.2 11.3 0.00 0.00 0.06 55 1011.9
20260503190002 62 195 9.6 15.6 0.00 0.00 0.06 53 1012.0
20260503185502 62 211 7.0 10.4 0.00 0.00 0.06 59 1011.9
20260503185002 60 203 7.8 9.6 0.00 0.00 0.06 61 1012.2
20260503184502 60 212 3.5 11.3 0.00 0.00 0.06 65 1012.5
20260503184002 59 206 3.5 10.4 0.00 0.00 0.06 67 1012.3
20260503183502 59 221 4.3 6.1 0.00 0.00 0.06 71 1012.2
20260503183002 58 173 4.3 8.7 0.00 0.00 0.06 72 1012.5
20260503182502 57 249 2.6 6.1 0.00 0.00 0.06 75 1012.2
20260503182002 56 256 3.5 9.6 0.00 0.00 0.06 75 1012.8
20260503181502 54 195 3.5 5.2 0.00 0.00 0.06 77 1013.1
20260503181002 53 142 2.6 5.2 0.00 0.00 0.06 78 1013.3
20260503180501 51 255 3.5 5.2 0.00 0.00 0.06 80 1013.3
20260503180002 50 217 2.6 7.8 0.00 0.00 0.06 80 1013.8
20260503175502 50 291 2.6 4.3 0.00 0.00 0.06 81 1014.0
20260503175002 50 164 3.5 6.1 0.00 0.00 0.06 81 1014.2
20260503174502 50 273 3.5 6.1 0.00 0.00 0.06 80 1014.6
20260503174002 50 166 3.5 8.7 0.00 0.00 0.06 81 1014.9
20260503173502 50 214 2.6 4.3 0.00 0.00 0.06 81 1015.2
20260503173002 50 248 1.7 5.2 0.00 0.00 0.06 82 1015.0
20260503172502 50 258 2.6 7.8 0.00 0.00 0.06 82 1015.4
20260503172002 50 271 0.9 3.5 0.04 0.00 0.06 87 1015.2
20260503171502 50 280 0.9 3.5 0.04 0.00 0.06 86 1015.4
20260503171002 50 211 1.7 2.6 0.00 0.00 0.05 86 1015.5
20260503170502 50 245 2.6 6.1 0.00 0.00 0.05 86 1015.3
20260503151002 53 244 2.6 4.3 0.00 0.00 0.00 66 1016.3
20260503150502 53 232 4.3 9.6 0.00 0.00 0.00 65 1016.1
20260503131001 49 215 5.2 8.7 0.00 0.00 0.00 70 1016.9
20260503130502 49 205 3.5 7.8 0.00 0.00 0.00 70 1017.0
20260503110502 43 259 2.6 5.2 0.00 0.00 0.00 73 1016.6
20260503090502 41 251 1.7 2.6 0.00 0.00 0.00 74 1016.9
20260503081502 42 244 1.7 2.6 0.00 0.00 0.00 71 1017.3
20260503081002 42 256 1.7 3.5 0.00 0.00 0.00 71 1017.2
20260503080501 42 260 1.7 2.6 0.00 0.00 0.00 71 1017.1
20260503072502 42 245 1.7 4.3 0.00 0.00 0.00 70 1017.1
20260503072002 42 266 1.7 3.5 0.00 0.00 0.00 70 1017.3
20260503071501 42 227 3.5 4.3 0.00 0.00 0.00 70 1017.3
20260503071002 42 267 1.7 2.6 0.00 0.00 0.00 70 1017.3
20260503070502 42 216 2.6 2.6 0.00 0.00 0.00 70 1017.3
20260503055002 43 272 0.9 2.6 0.00 0.00 0.00 69 1017.9
20260503054502 43 220 1.7 2.6 0.00 0.00 0.00 69 1018.0
20260503054002 43 261 1.7 3.5 0.00 0.00 0.00 68 1017.9
20260503053502 43 274 0.9 2.6 0.00 0.00 0.00 68 1018.0
20260503053001 43 264 1.7 2.6 0.00 0.00 0.00 68 1018.3
20260503052502 43 269 1.7 3.5 0.00 0.00 0.00 69 1018.2
20260503052002 43 263 1.7 2.6 0.00 0.00 0.00 69 1018.1
20260503051501 43 274 0.9 2.6 0.00 0.00 0.00 69 1018.1
20260503051002 43 271 0.9 2.6 0.00 0.00 0.00 69 1018.3
20260503050502 43 259 0.9 3.5 0.00 0.00 0.00 70 1018.3
20260503050002 43 257 1.7 2.6 0.00 0.00 0.00 70 1018.4
20260503045502 43 267 1.7 1.7 0.00 0.00 0.00 71 1018.5
20260503045002 43 255 1.7 1.7 0.00 0.00 0.00 71 1018.3
20260503044502 43 262 1.7 2.6 0.00 0.00 0.00 72 1018.3
20260503044001 43 243 1.7 2.6 0.00 0.00 0.00 71 1018.2
20260503043502 43 267 0.9 1.7 0.00 0.00 0.00 70 1018.4
20260503043002 43 265 1.7 1.7 0.00 0.00 0.00 71 1018.4
20260503042501 43 268 0.9 1.7 0.00 0.00 0.00 70 1018.2
20260503042002 43 267 0.9 2.6 0.00 0.00 0.00 70 1018.5
20260503041502 43 276 0.9 1.7 0.00 0.00 0.00 71 1018.4
20260503041002 43 262 0.9 1.7 0.00 0.00 0.00 71 1018.3
20260503040502 43 266 0.9 2.6 0.00 0.00 0.00 71 1018.3
20260503040001 43 262 0.9 1.7 0.00 0.00 0.00 71 1018.2
20260503035502 43 260 1.7 2.6 0.00 0.00 0.00 70 1018.4
20260503035002 43 271 0.9 3.5 0.00 0.00 0.00 70 1018.4
20260503034502 43 263 1.7 2.6 0.00 0.00 0.00 70 1018.4
20260503034002 43 264 0.9 1.7 0.00 0.00 0.00 70 1018.4
20260503033502 44 252 1.7 2.6 0.00 0.00 0.00 71 1018.2
20260503033002 44 264 0.9 2.6 0.00 0.00 0.00 70 1018.6
20260503032501 44 250 1.7 2.6 0.00 0.00 0.00 70 1018.4
20260503032002 44 259 1.7 2.6 0.00 0.00 0.00 69 1018.3
20260503031502 44 264 1.7 1.7 0.00 0.00 0.00 69 1018.6
20260503031001 44 251 0.9 2.6 0.00 0.00 0.00 68 1018.6
20260503030503 45 234 1.7 2.6 0.00 0.00 0.00 68 1018.4
20260503030002 45 270 0.9 2.6 0.00 0.00 0.00 68 1018.8
20260503025502 45 252 0.9 2.6 0.00 0.00 0.00 67 1018.7
20260503025002 45 264 0.9 1.7 0.00 0.00 0.00 67 1018.6
20260503024502 45 222 1.7 2.6 0.00 0.00 0.00 67 1018.9
20260503024002 45 258 1.7 2.6 0.00 0.00 0.00 67 1018.5
20260503023502 45 242 1.7 2.6 0.00 0.00 0.00 67 1018.4
20260503023002 45 217 1.7 3.5 0.00 0.00 0.00 66 1018.6
20260503022502 45 240 2.6 2.6 0.00 0.00 0.00 66 1018.5
20260503022002 46 234 2.6 2.6 0.00 0.00 0.00 64 1018.5
20260503021502 46 259 1.7 2.6 0.00 0.00 0.00 64 1018.5
20260503021001 46 266 0.9 2.6 0.00 0.00 0.00 63 1018.6
20260503020502 46 246 0.9 2.6 0.00 0.00 0.00 63 1018.6
20260503020002 47 259 1.7 2.6 0.00 0.00 0.00 63 1018.5
20260503015502 47 271 0.9 1.7 0.00 0.00 0.00 62 1018.6
20260503015002 47 269 0.9 2.6 0.00 0.00 0.00 61 1018.4
20260503014502 47 273 0.9 1.7 0.00 0.00 0.00 59 1018.5
20260503014002 48 273 0.0 0.0 0.00 0.00 0.00 58 1018.2
20260503013501 48 273 0.9 1.7 0.00 0.00 0.00 57 1018.2
20260503013002 48 274 0.0 1.7 0.00 0.00 0.00 57 1018.2
20260503012502 48 276 0.9 1.7 0.00 0.00 0.00 57 1018.2
20260503012002 48 278 0.0 0.0 0.00 0.00 0.00 56 1018.1
20260503011502 48 278 0.0 0.0 0.00 0.00 0.00 56 1018.2
20260503011002 49 278 0.0 0.0 0.00 0.00 0.00 55 1018.2
20260503010502 49 278 0.0 0.0 0.00 0.00 0.00 53 1018.3
20260503010002 50 278 0.0 0.0 0.00 0.00 0.00 52 1018.1
20260503005501 50 276 0.0 1.7 0.00 0.00 0.00 51 1018.1
20260503005002 51 279 0.0 1.7 0.00 0.00 0.00 50 1018.0
20260503004502 51 277 0.0 1.7 0.00 0.00 0.00 50 1018.3
20260503004001 52 283 0.0 0.0 0.00 0.00 0.00 49 1018.3
20260503003502 53 248 1.7 2.6 0.00 0.00 0.00 47 1018.2
20260503003002 53 282 2.6 4.3 0.00 0.00 0.00 45 1018.1
20260503002502 53 277 1.7 5.2 0.00 0.00 0.00 45 1018.3
20260503002002 53 280 0.9 1.7 0.00 0.00 0.00 47 1018.2
20260503001502 53 286 2.6 3.5 0.00 0.00 0.00 45 1018.4
20260503001001 54 281 1.7 2.6 0.00 0.00 0.00 43 1018.2
20260503000502 55 317 2.6 6.1 0.00 0.00 0.00 42 1018.2
20260503000002 55 282 2.6 4.3 0.00 0.00 0.00 42 1018.2
20260502235502 56 340 3.5 6.1 0.00 0.00 0.00 41 1018.2
20260502235002 56 268 1.7 5.2 0.00 0.00 0.00 42 1018.1
20260502234502 56 311 3.5 4.3 0.00 0.00 0.00 41 1018.1
20260502234002 55 310 0.9 5.2 0.00 0.00 0.00 42 1018.3
20260502233501 55 260 2.6 5.2 0.00 0.00 0.00 43 1018.6
20260502233002 56 285 2.6 4.3 0.00 0.00 0.00 41 1018.6
20260502232502 54 295 2.6 5.2 0.00 0.00 0.00 43 1018.5
20260502232002 55 284 2.6 8.7 0.00 0.00 0.00 43 1018.2